Flag for Vietnam Weather past 2 weeks in Da Nang, Vietnam

Now
75 °F

Thunderstorms. Partly sunny.


Feels Like: 74 °F
Forecast: 81 / 95 °F
Wind: 14 mph from West

Location: Da Nang Airport

Current Time: Aug 1, 2014 at 5:14:09 PM

Latest Report: Aug 1, 2014 at 4:30 PM


Visibility: 2 mi

Pressure: 29.59 "Hg

Humidity: 94%

Dew point: 73 °F

Location of Da NangLocation

Historic Weather in Da Nang — Graph

°F

Da Nang temperature yesterday

Maximum temperature yesterday: 90 °F (at 9:30 AM)
Minimum temperature yesterday: 77 °F (at 2:00 AM)
Average temperature yesterday: 84 °F

Past Weeks' High & Low Weather Summary

 TemperatureHumidityPressure
High99 °F (Jul 25, 11:30 AM)100% (Jul 28, 5:00 PM)29.80 "Hg (Jul 28, 5:00 PM)
Low75 °F (Jul 28, 4:30 PM)44% (Jul 20, 10:00 AM)29.53 "Hg (Jul 17, 3:00 PM)
Average84 °F76%29.67 "Hg
* Reported Jul 17 3:00 PM — Aug 1 3:30 PM, Da Nang, Weather by CustomWeather, © 2014

Note: Actual official high and low records may vary slightly from our data, if they occured in-between our weather recording intervals... More about our weather records

Advertising

Da Nang weather history for previous 24 hours

 ConditionsComfort  
Time TempWeatherWind HumidityBarometerVisibility
3:30 PM
Aug 1
82 °FThunderstorms. Broken clouds.9 mph84%29.59 "Hg2 mi
3:00 PM90 °FPartly sunny.9 mph67%29.56 "HgN/A
2:30 PM91 °FScattered clouds.10 mph63%29.56 "HgN/A
2:00 PM93 °FScattered clouds.9 mph59%29.56 "HgN/A
1:30 PM93 °FScattered clouds.10 mph59%29.56 "HgN/A
1:00 PM93 °FScattered clouds.9 mph56%29.56 "HgN/A
12:30 PM93 °FScattered clouds.8 mph56%29.59 "HgN/A
12:00 PM93 °FScattered clouds.6 mph56%29.59 "HgN/A
11:30 AM93 °FScattered clouds.7 mph56%29.62 "HgN/A
11:00 AM93 °FScattered clouds.5 mph59%29.62 "HgN/A
10:30 AM93 °FScattered clouds.6 mph53%29.62 "HgN/A
9:30 AM91 °FScattered clouds.2 mph59%29.65 "HgN/A
9:00 AM91 °FScattered clouds.1 mph59%29.65 "HgN/A
8:30 AM90 °FScattered clouds.1 mph63%29.65 "HgN/A
8:00 AM90 °FScattered clouds.1 mph63%29.62 "HgN/A
7:30 AM88 °FScattered clouds.No wind66%29.62 "HgN/A
7:00 AM84 °FScattered clouds.1 mph74%29.62 "HgN/A
6:30 AM82 °FScattered clouds.2 mph79%29.62 "HgN/A
6:00 AM79 °FScattered clouds.1 mph89%29.62 "HgN/A
5:30 AM77 °FScattered clouds.2 mph94%29.62 "HgN/A
5:00 AM77 °FPassing clouds.3 mph94%29.62 "HgN/A
4:30 AM79 °FPassing clouds.No wind89%29.59 "HgN/A
4:00 AM77 °FPassing clouds.1 mph94%29.62 "HgN/A
3:30 AM77 °FPassing clouds.2 mph94%29.62 "HgN/A
3:00 AM77 °FPassing clouds.3 mph94%29.62 "HgN/A
2:30 AM77 °FPassing clouds.2 mph89%29.62 "HgN/A
2:00 AM77 °FPassing clouds.3 mph94%29.62 "HgN/A
1:30 AM79 °FPassing clouds.3 mph89%29.62 "HgN/A
1:00 AM79 °FPassing clouds.5 mph89%29.65 "HgN/A
12:30 AM79 °FPassing clouds.3 mph89%29.65 "HgN/A
12:00 AM79 °FPassing clouds.2 mph89%29.65 "HgN/A
11:30 PM
Jul 31
79 °FPassing clouds.1 mph89%29.68 "HgN/A
11:00 PM81 °FPassing clouds.3 mph84%29.68 "HgN/A
10:30 PM81 °FPassing clouds.No wind84%29.68 "HgN/A
10:00 PM81 °FPassing clouds.3 mph84%29.68 "HgN/A
9:30 PM81 °FPassing clouds.5 mph84%29.68 "HgN/A
9:00 PM81 °FPassing clouds.6 mph89%29.68 "HgN/A
8:30 PM82 °FPassing clouds.3 mph84%29.65 "HgN/A
8:00 PM82 °FPassing clouds.3 mph89%29.65 "HgN/A
7:30 PM84 °FPassing clouds.6 mph84%29.65 "HgN/A
7:00 PM86 °FPassing clouds.2 mph79%29.65 "HgN/A
6:30 PM86 °FPassing clouds.3 mph79%29.62 "HgN/A
6:00 PM86 °FThunderstorms. Broken clouds.7 mph79%29.62 "HgN/A
5:30 PM86 °FThunderstorms. Broken clouds.9 mph79%29.62 "HgN/A
5:00 PM88 °FScattered clouds.9 mph70%29.59 "HgN/A
Weather by CustomWeather, © 2014

See weather overviewHow to use our weather pages